Wind_Speed
14 12 9 8 7 8 9 9 11 15 16 16 18 22 29 29 34 40 22 28 32 38 48 38 38 37 34 35 35 34 28 26
13 14 12 11 11 9 10 16 21 21 22 20 20 21 30 34 34 29 30 27 33 37 36 37 31 26 30 28 28 27 27 28
12 12 12 10 10 10 11 20 18 25 28 26 23 22 28 31 30 32 32 31 32 35 33 30 26 30 28 25 25 27 26 29
11 12 11 10 8 9 11 15 5 17 28 27 25 23 23 28 22 26 26 24 24 26 30 31 32 31 32 30 27 27 31 28
12 10 11 8 7 8 8 9 10 3 18 19 22 21 25 23 14 19 22 19 28 24 28 33 33 32 31 32 30 29 27 28
13 8 8 6 4 5 6 5 4 2 5 10 17 26 25 25 29 27 25 27 26 28 31 38 33 33 35 36 28 28 27 26
13 11 8 7 5 5 6 5 3 3 4 5 5 6 11 19 29 28 27 30 33 29 30 33 35 35 36 31 29 28 28 28
14 13 10 8 7 9 7 7 6 5 6 7 7 8 10 8 14 30 29 24 26 28 26 32 29 29 31 27 28 29 28 31
16 15 12 10 11 12 9 8 9 8 6 8 10 9 10 9 7 6 11 15 16 18 20 20 20 22 24 28 31 31 33 35
16 18 17 13 14 15 12 11 10 9 9 13 10 9 11 12 12 11 15 15 15 17 21 22 21 20 24 27 29 31 36 37
21 19 23 17 15 15 14 13 9 9 8 10 15 14 13 13 14 16 19 21 21 23 25 25 23 23 25 27 25 29 32 34
24 22 22 21 16 14 16 12 12 12 12 11 11 14 16 15 14 18 21 20 21 25 25 25 26 28 29 31 30 31 34 34
24 24 24 24 18 15 17 15 14 15 14 14 12 15 15 15 16 21 21 23 23 25 23 27 28 31 33 33 34 36 35 38
25 27 28 28 27 24 21 23 20 21 20 17 18 18 17 16 17 19 22 26 27 28 26 28 31 34 32 34 36 34 34 38
30 31 33 30 29 29 27 26 28 27 26 22 21 22 24 25 26 24 23 25 25 26 27 28 34 32 34 32 38 39 40 42
35 34 34 34 31 31 32 34 34 35 32 34 31 30 29 31 28 27 27 26 26 28 28 29 33 31 31 39 40 44 44 44
38 37 37 35 35 35 37 37 36 37 37 38 36 34 31 31 30 30 31 29 29 30 31 36 36 37 36 38 41 43 43 48
40 42 41 41 39 39 40 40 40 39 39 41 40 37 34 35 37 37 35 35 36 36 38 40 40 41 40 41 43 46 44 45
37 37 41 41 41 42 38 39 40 43 43 44 37 36 32 34 37 41 41 42 42 43 43 43 44 42 41 41 43 46 47 44
Wind_Direction
313 322 333 336 337 322 299 287 281 250 238 221 212 210 199 197 207 215 223 217 203 216 220 219 217 225 232 239 244 245 257 264
307 308 316 327 328 311 306 295 282 257 229 229 224 229 203 201 205 197 198 201 204 208 213 217 217 223 231 234 243 251 257 261
302 304 304 309 326 323 325 321 280 232 221 221 216 215 183 182 188 191 202 208 210 211 216 226 231 233 236 241 248 254 262 259
291 302 302 313 326 339 341 357 308 219 210 218 212 226 249 216 202 213 212 218 222 232 231 234 241 248 244 244 254 256 255 252
279 294 305 313 331 331 346 2 39 200 206 218 229 240 231 243 242 244 224 252 234 245 249 246 244 247 250 257 257 261 252 236
272 274 284 308 328 326 329 339 359 64 204 255 261 238 235 234 228 223 242 245 249 260 250 236 239 246 246 252 254 262 248 235
270 266 262 283 307 335 346 328 305 278 268 270 261 266 253 254 235 231 244 242 247 258 252 242 245 248 253 250 251 249 249 239
264 260 258 264 292 313 317 321 327 301 272 254 251 248 257 276 239 228 243 236 237 247 250 239 243 254 255 244 243 240 240 247
249 245 249 264 278 300 300 321 309 289 259 257 245 250 257 264 270 236 226 227 230 233 240 241 240 240 238 240 240 242 250 255
241 259 251 259 271 283 282 291 289 284 275 252 252 252 240 241 240 243 232 237 250 254 247 245 241 249 252 256 255 258 258 259
240 260 266 253 261 269 274 279 285 279 277 270 251 249 254 250 245 235 233 239 245 246 247 254 260 259 260 258 261 261 262 260
243 249 257 259 260 257 261 267 272 284 281 273 258 254 256 260 270 264 263 258 260 259 254 246 249 252 259 260 260 260 261 263
241 243 249 250 249 254 259 264 275 270 272 281 273 272 268 271 274 251 250 252 262 269 265 259 261 263 264 263 261 261 266 267
234 238 243 248 248 259 265 265 261 272 271 267 275 284 282 280 271 266 263 265 274 270 254 258 261 266 259 262 262 268 273 267
218 229 241 249 250 254 263 264 260 263 262 265 269 271 271 263 269 272 270 271 273 273 273 283 283 270 260 264 267 269 270 266
235 237 242 246 247 256 264 269 266 266 255 263 272 271 268 258 259 259 258 263 270 275 280 282 282 280 281 272 271 273 269 269
232 233 238 244 250 257 260 266 267 262 263 266 269 269 270 261 255 254 257 263 270 275 284 289 278 276 273 269 270 272 275 273
237 240 240 242 245 250 254 257 260 263 262 268 269 268 267 260 260 264 265 267 269 272 274 278 280 280 281 278 276 275 276 275
249 245 242 242 247 246 249 249 253 257 261 262 260 267 266 265 266 266 266 266 268 271 274 276 277 274 276 276 276 276 276 276
Height
5737 5734 5732 5731 5730 5729 5728 5727 5725 5724 5726 5727 5727 5728 5730 5733 5738 5742 5745 5747 5751 5757 5761 5765 5768 5772 5776 5778 5779 5781 5783 5783
5735 5734 5731 5730 5729 5727 5725 5722 5721 5721 5722 5725 5727 5728 5729 5732 5736 5739 5743 5745 5751 5755 5758 5761 5764 5767 5769 5772 5774 5774 5775 5776
5731 5731 5730 5728 5726 5725 5722 5716 5709 5712 5717 5721 5724 5726 5727 5731 5734 5737 5741 5746 5748 5751 5755 5757 5759 5763 5766 5767 5768 5768 5769 5769
5729 5729 5728 5727 5725 5723 5720 5715 5707 5708 5714 5718 5721 5724 5726 5729 5733 5737 5739 5741 5744 5748 5750 5752 5755 5757 5759 5760 5760 5760 5760 5761
5727 5727 5726 5725 5724 5722 5720 5717 5713 5713 5716 5720 5723 5724 5725 5727 5729 5732 5734 5737 5740 5743 5745 5747 5749 5751 5753 5754 5753 5754 5755 5756
5724 5724 5724 5723 5723 5722 5721 5719 5718 5718 5719 5718 5718 5719 5720 5723 5727 5728 5731 5734 5737 5739 5740 5741 5743 5745 5747 5748 5749 5749 5750 5753
5722 5721 5722 5722 5721 5720 5720 5719 5718 5718 5719 5718 5717 5717 5720 5721 5721 5722 5726 5730 5733 5734 5736 5737 5738 5740 5742 5742 5743 5745 5747 5750
5718 5718 5719 5719 5719 5719 5718 5718 5717 5716 5716 5716 5717 5718 5720 5719 5717 5719 5722 5724 5727 5729 5730 5731 5733 5735 5737 5738 5739 5742 5745 5747
5715 5715 5715 5716 5716 5716 5716 5716 5715 5714 5715 5715 5715 5716 5717 5717 5717 5719 5720 5723 5724 5726 5728 5728 5729 5730 5731 5734 5736 5738 5739 5742
5712 5712 5712 5712 5713 5713 5713 5713 5713 5713 5713 5713 5714 5715 5715 5716 5716 5717 5720 5721 5721 5722 5725 5727 5725 5725 5727 5730 5731 5733 5733 5733
5707 5708 5709 5709 5708 5709 5709 5709 5710 5710 5711 5710 5711 5712 5713 5714 5715 5716 5716 5717 5717 5720 5721 5721 5720 5721 5722 5723 5725 5725 5723 5725
5702 5704 5705 5706 5706 5705 5706 5707 5706 5706 5707 5707 5708 5708 5709 5710 5710 5710 5711 5712 5714 5715 5715 5715 5716 5717 5717 5717 5719 5718 5717 5717
5696 5699 5699 5700 5702 5701 5702 5702 5702 5702 5702 5702 5703 5704 5704 5704 5704 5705 5707 5708 5709 5710 5709 5709 5711 5711 5712 5711 5711 5711 5708 5708
5691 5692 5693 5694 5696 5697 5697 5697 5697 5697 5698 5697 5698 5698 5699 5700 5699 5699 5701 5701 5701 5701 5702 5703 5703 5703 5702 5702 5702 5700 5698 5697
5682 5685 5687 5688 5689 5690 5691 5691 5691 5691 5691 5692 5692 5693 5693 5693 5693 5694 5694 5693 5693 5693 5694 5693 5693 5693 5692 5691 5690 5690 5689 5689
5678 5678 5680 5681 5682 5683 5683 5683 5684 5684 5685 5686 5687 5686 5686 5685 5686 5686 5685 5685 5685 5683 5683 5684 5683 5682 5683 5682 5681 5680 5679 5679
5667 5669 5671 5672 5674 5675 5675 5675 5676 5676 5677 5678 5678 5678 5678 5678 5677 5675 5675 5675 5675 5674 5674 5674 5674 5673 5674 5671 5669 5669 5668 5667
5661 5662 5663 5664 5664 5665 5666 5667 5666 5668 5667 5667 5669 5668 5669 5669 5668 5668 5668 5667 5665 5665 5665 5663 5663 5661 5661 5659 5657 5654 5653 5653
5651 5653 5654 5655 5657 5658 5658 5657 5658 5659 5659 5658 5659 5658 5658 5659 5659 5658 5659 5658 5658 5657 5655 5653 5652 5651 5649 5648 5645 5642 5640 5640